QPF
0.01 0.01 0.01 0.00 0.00 0.00 0.00 0.00 0.01 0.02 0.04 0.07 0.06 0.03 0.02 0.03 0.03 0.04 0.03 0.03 0.02 0.02 0.03 0.03 0.05 0.08 0.09 0.07 0.05 0.04 0.04 0.03 0.04 0.06 0.06 0.05 0.05 0.06 0.06 0.06 0.07 0.09 0.08 0.06
0.01 0.00 0.00 0.00 0.00 0.00 0.00 0.00 0.02 0.03 0.05 0.06 0.05 0.04 0.02 0.04 0.04 0.05 0.05 0.03 0.02 0.01 0.02 0.02 0.03 0.05 0.07 0.08 0.06 0.05 0.05 0.05 0.04 0.05 0.06 0.07 0.08 0.09 0.07 0.07 0.06 0.07 0.07 0.05
0.01 0.01 0.01 0.01 0.00 0.00 0.00 0.02 0.05 0.05 0.05 0.03 0.02 0.04 0.04 0.05 0.06 0.04 0.05 0.04 0.02 0.02 0.02 0.02 0.04 0.05 0.05 0.04 0.04 0.05 0.05 0.04 0.04 0.05 0.05 0.07 0.06 0.07 0.07 0.07 0.07 0.07 0.07 0.05
0.02 0.01 0.02 0.02 0.01 0.00 0.02 0.07 0.06 0.05 0.04 0.03 0.03 0.02 0.03 0.03 0.04 0.07 0.07 0.06 0.03 0.03 0.03 0.04 0.05 0.06 0.06 0.06 0.05 0.04 0.04 0.03 0.03 0.03 0.04 0.05 0.06 0.07 0.07 0.08 0.08 0.08 0.07 0.05
0.02 0.03 0.03 0.03 0.01 0.01 0.03 0.09 0.05 0.04 0.05 0.06 0.05 0.03 0.04 0.03 0.03 0.06 0.07 0.09 0.10 0.09 0.06 0.05 0.06 0.05 0.06 0.07 0.06 0.04 0.03 0.03 0.02 0.02 0.02 0.04 0.05 0.06 0.08 0.09 0.08 0.08 0.07 0.06
0.03 0.04 0.05 0.05 0.02 0.01 0.04 0.09 0.04 0.02 0.04 0.06 0.06 0.06 0.06 0.03 0.03 0.07 0.09 0.10 0.12 0.11 0.08 0.07 0.07 0.07 0.07 0.07 0.06 0.05 0.04 0.04 0.03 0.02 0.02 0.03 0.03 0.05 0.07 0.09 0.09 0.09 0.08 0.07
0.04 0.06 0.07 0.06 0.02 0.01 0.05 0.07 0.03 0.03 0.03 0.03 0.05 0.07 0.06 0.03 0.04 0.04 0.08 0.09 0.09 0.10 0.11 0.10 0.09 0.10 0.09 0.08 0.07 0.05 0.03 0.03 0.06 0.04 0.03 0.02 0.02 0.03 0.05 0.07 0.07 0.06 0.07 0.06
0.06 0.08 0.09 0.05 0.02 0.04 0.05 0.03 0.03 0.03 0.03 0.04 0.05 0.04 0.04 0.04 0.04 0.03 0.03 0.05 0.06 0.07 0.10 0.11 0.11 0.13 0.11 0.09 0.08 0.06 0.06 0.07 0.06 0.05 0.03 0.03 0.03 0.04 0.05 0.06 0.06 0.05 0.06 0.06
0.06 0.07 0.07 0.03 0.01 0.01 0.02 0.03 0.03 0.03 0.03 0.03 0.03 0.03 0.03 0.03 0.03 0.03 0.02 0.03 0.05 0.06 0.08 0.08 0.10 0.14 0.14 0.12 0.08 0.06 0.07 0.09 0.08 0.05 0.05 0.05 0.04 0.04 0.05 0.07 0.07 0.05 0.04 0.05
0.03 0.04 0.03 0.02 0.01 0.01 0.01 0.01 0.02 0.02 0.02 0.03 0.04 0.04 0.03 0.03 0.03 0.03 0.04 0.05 0.05 0.06 0.06 0.06 0.07 0.07 0.09 0.11 0.09 0.07 0.07 0.08 0.08 0.06 0.06 0.06 0.07 0.06 0.07 0.07 0.08 0.07 0.06 0.06
0.04 0.04 0.03 0.03 0.01 0.01 0.01 0.01 0.01 0.01 0.01 0.01 0.03 0.03 0.03 0.04 0.03 0.03 0.04 0.06 0.07 0.07 0.07 0.06 0.04 0.04 0.05 0.06 0.07 0.08 0.07 0.06 0.06 0.06 0.06 0.07 0.07 0.07 0.08 0.08 0.09 0.08 0.08 0.07
0.04 0.05 0.05 0.04 0.02 0.01 0.01 0.01 0.01 0.01 0.01 0.01 0.01 0.02 0.02 0.03 0.03 0.03 0.03 0.04 0.07 0.07 0.07 0.06 0.05 0.04 0.04 0.04 0.05 0.06 0.06 0.05 0.06 0.06 0.06 0.07 0.08 0.08 0.08 0.08 0.07 0.07 0.07 0.08
0.02 0.02 0.02 0.02 0.01 0.01 0.02 0.01 0.01 0.01 0.02 0.01 0.01 0.02 0.02 0.02 0.03 0.03 0.03 0.03 0.05 0.05 0.05 0.06 0.06 0.05 0.05 0.05 0.05 0.05 0.05 0.05 0.06 0.06 0.07 0.07 0.07 0.08 0.09 0.07 0.06 0.06 0.06 0.06
0.01 0.01 0.02 0.03 0.02 0.01 0.02 0.03 0.02 0.01 0.02 0.02 0.02 0.01 0.01 0.01 0.01 0.02 0.03 0.04 0.05 0.04 0.04 0.05 0.05 0.04 0.04 0.05 0.05 0.05 0.05 0.05 0.06 0.07 0.08 0.08 0.08 0.07 0.09 0.09 0.08 0.06 0.05 0.04
0.01 0.01 0.01 0.01 0.01 0.01 0.02 0.02 0.04 0.04 0.03 0.02 0.02 0.02 0.02 0.02 0.01 0.01 0.03 0.03 0.02 0.03 0.03 0.03 0.03 0.03 0.04 0.05 0.06 0.06 0.06 0.05 0.05 0.06 0.06 0.07 0.08 0.08 0.07 0.08 0.07 0.05 0.04 0.04
0.01 0.01 0.00 0.01 0.02 0.02 0.02 0.01 0.02 0.05 0.04 0.03 0.02 0.02 0.02 0.02 0.01 0.01 0.02 0.03 0.03 0.02 0.02 0.03 0.02 0.02 0.04 0.05 0.05 0.05 0.06 0.05 0.04 0.05 0.06 0.06 0.07 0.08 0.07 0.07 0.05 0.04 0.03 0.03
0.01 0.01 0.01 0.02 0.02 0.02 0.02 0.02 0.04 0.06 0.06 0.04 0.02 0.01 0.01 0.01 0.01 0.02 0.03 0.03 0.02 0.01 0.02 0.03 0.02 0.02 0.03 0.04 0.05 0.06 0.06 0.06 0.04 0.04 0.04 0.04 0.04 0.05 0.04 0.04 0.03 0.02 0.02 0.02
0.01 0.01 0.01 0.01 0.02 0.03 0.03 0.03 0.06 0.05 0.04 0.04 0.03 0.02 0.02 0.02 0.03 0.03 0.03 0.03 0.02 0.02 0.03 0.03 0.03 0.03 0.03 0.04 0.05 0.05 0.05 0.05 0.05 0.05 0.04 0.04 0.03 0.03 0.02 0.02 0.02 0.02 0.01 0.01
0.01 0.01 0.01 0.01 0.01 0.02 0.02 0.03 0.05 0.04 0.03 0.04 0.04 0.03 0.02 0.02 0.02 0.03 0.02 0.03 0.02 0.03 0.03 0.04 0.04 0.02 0.03 0.04 0.04 0.04 0.04 0.04 0.05 0.05 0.05 0.04 0.03 0.03 0.03 0.02 0.02 0.02 0.02 0.01
0.02 0.02 0.02 0.03 0.02 0.02 0.03 0.04 0.04 0.03 0.02 0.03 0.03 0.03 0.03 0.02 0.03 0.03 0.02 0.03 0.03 0.03 0.04 0.04 0.03 0.03 0.03 0.03 0.03 0.03 0.03 0.04 0.05 0.05 0.05 0.05 0.04 0.03 0.02 0.02 0.02 0.02 0.02 0.02
0.03 0.03 0.03 0.04 0.04 0.03 0.03 0.03 0.03 0.02 0.01 0.02 0.02 0.02 0.02 0.03 0.03 0.03 0.04 0.05 0.05 0.04 0.03 0.03 0.03 0.03 0.03 0.04 0.03 0.03 0.03 0.04 0.05 0.05 0.05 0.05 0.04 0.03 0.03 0.03 0.02 0.03 0.03 0.03
0.02 0.02 0.03 0.04 0.04 0.04 0.04 0.05 0.03 0.01 0.01 0.01 0.01 0.01 0.01 0.02 0.03 0.03 0.04 0.04 0.03 0.03 0.02 0.02 0.02 0.02 0.03 0.05 0.05 0.05 0.04 0.04 0.04 0.04 0.04 0.04 0.04 0.04 0.04 0.04 0.04 0.04 0.04 0.03
0.02 0.03 0.03 0.03 0.03 0.04 0.04 0.05 0.04 0.02 0.01 0.01 0.02 0.01 0.01 0.03 0.03 0.03 0.03 0.02 0.02 0.02 0.02 0.01 0.01 0.02 0.02 0.04 0.04 0.04 0.03 0.03 0.03 0.04 0.04 0.04 0.04 0.04 0.05 0.05 0.05 0.05 0.04 0.04
0.02 0.03 0.03 0.03 0.02 0.03 0.04 0.05 0.05 0.04 0.03 0.02 0.02 0.02 0.02 0.02 0.02 0.02 0.02 0.02 0.02 0.01 0.02 0.02 0.02 0.02 0.02 0.02 0.03 0.03 0.03 0.03 0.03 0.03 0.04 0.04 0.04 0.04 0.05 0.06 0.06 0.05 0.04 0.04
0.02 0.03 0.03 0.02 0.02 0.03 0.04 0.04 0.04 0.04 0.04 0.03 0.03 0.03 0.02 0.01 0.01 0.01 0.01 0.01 0.01 0.01 0.01 0.01 0.02 0.01 0.01 0.02 0.03 0.04 0.04 0.04 0.03 0.03 0.03 0.04 0.04 0.04 0.04 0.05 0.06 0.05 0.04 0.03
0.02 0.02 0.03 0.03 0.02 0.02 0.03 0.04 0.04 0.05 0.03 0.03 0.04 0.04 0.02 0.02 0.01 0.01 0.01 0.01 0.01 0.01 0.01 0.01 0.01 0.01 0.01 0.01 0.02 0.03 0.03 0.03 0.03 0.03 0.03 0.03 0.04 0.04 0.04 0.05 0.05 0.04 0.03 0.02
0.02 0.02 0.03 0.02 0.02 0.02 0.02 0.03 0.03 0.03 0.03 0.03 0.04 0.04 0.02 0.01 0.01 0.01 0.01 0.01 0.01 0.01 0.01 0.01 0.01 0.01 0.01 0.01 0.01 0.01 0.01 0.01 0.01 0.01 0.01 0.01 0.02 0.03 0.04 0.04 0.04 0.04 0.03 0.02
MSLP
1010.52 1009.78 1009.02 1008.35 1007.83 1007.51 1007.40 1007.42 1007.52 1007.58 1007.51 1007.23 1006.68 1005.88 1004.87 1003.74 1002.60 1001.57 1000.76 1000.27 1000.14 1000.37 1000.94 1001.79 1002.85 1004.02 1005.23 1006.40 1007.50 1008.48 1009.35 1010.09 1010.72 1011.25 1011.71 1012.09 1012.43 1012.72 1012.99 1013.23 1013.46 1013.68 1013.90 1014.12
1010.35 1009.56 1008.72 1007.93 1007.28 1006.83 1006.61 1006.57 1006.66 1006.78 1006.81 1006.68 1006.31 1005.68 1004.82 1003.81 1002.73 1001.71 1000.85 1000.27 1000.03 1000.16 1000.63 1001.41 1002.42 1003.59 1004.82 1006.04 1007.19 1008.23 1009.15 1009.93 1010.60 1011.16 1011.65 1012.07 1012.45 1012.80 1013.12 1013.42 1013.70 1013.97 1014.21 1014.43
1010.13 1009.35 1008.47 1007.60 1006.85 1006.28 1005.92 1005.78 1005.79 1005.87 1005.92 1005.85 1005.58 1005.08 1004.35 1003.46 1002.47 1001.51 1000.68 1000.09 999.82 999.90 1000.32 1001.06 1002.05 1003.21 1004.45 1005.70 1006.88 1007.96 1008.91 1009.72 1010.42 1011.02 1011.53 1012.00 1012.43 1012.83 1013.21 1013.57 1013.91 1014.21 1014.47 1014.68
1009.89 1009.16 1008.30 1007.40 1006.57 1005.90 1005.41 1005.13 1005.01 1004.99 1004.98 1004.89 1004.65 1004.22 1003.59 1002.81 1001.94 1001.08 1000.33 999.80 999.55 999.63 1000.05 1000.78 1001.75 1002.89 1004.13 1005.38 1006.57 1007.66 1008.62 1009.46 1010.18 1010.80 1011.35 1011.85 1012.32 1012.78 1013.21 1013.62 1013.99 1014.32 1014.59 1014.80
1009.59 1008.95 1008.14 1007.27 1006.42 1005.67 1005.08 1004.67 1004.40 1004.24 1004.12 1003.96 1003.70 1003.30 1002.74 1002.06 1001.31 1000.57 999.93 999.49 999.31 999.44 999.87 1000.58 1001.54 1002.66 1003.87 1005.09 1006.26 1007.34 1008.30 1009.14 1009.87 1010.51 1011.08 1011.61 1012.12 1012.60 1013.07 1013.51 1013.91 1014.25 1014.53 1014.74
1009.17 1008.63 1007.92 1007.12 1006.30 1005.54 1004.88 1004.36 1003.97 1003.68 1003.44 1003.19 1002.88 1002.48 1001.97 1001.38 1000.74 1000.13 999.62 999.29 999.19 999.36 999.81 1000.52 1001.44 1002.51 1003.66 1004.84 1005.97 1007.01 1007.95 1008.78 1009.51 1010.16 1010.74 1011.29 1011.82 1012.32 1012.81 1013.26 1013.67 1014.01 1014.29 1014.50
1008.55 1008.12 1007.53 1006.84 1006.10 1005.38 1004.73 1004.17 1003.70 1003.31 1002.98 1002.66 1002.31 1001.90 1001.43 1000.92 1000.39 999.90 999.51 999.28 999.25 999.46 999.92 1000.59 1001.46 1002.46 1003.54 1004.64 1005.70 1006.69 1007.60 1008.41 1009.13 1009.78 1010.37 1010.93 1011.47 1011.97 1012.46 1012.91 1013.31 1013.66 1013.93 1014.13
1007.69 1007.36 1006.90 1006.36 1005.75 1005.14 1004.55 1004.02 1003.55 1003.13 1002.75 1002.39 1002.02 1001.63 1001.20 1000.76 1000.33 999.95 999.66 999.51 999.54 999.77 1000.20 1000.83 1001.61 1002.52 1003.50 1004.50 1005.48 1006.41 1007.27 1008.06 1008.77 1009.42 1010.02 1010.58 1011.12 1011.62 1012.10 1012.54 1012.92 1013.25 1013.52 1013.71
1006.59 1006.36 1006.04 1005.66 1005.23 1004.78 1004.32 1003.88 1003.47 1003.09 1002.73 1002.37 1002.02 1001.66 1001.29 1000.92 1000.58 1000.28 1000.07 999.98 1000.04 1000.27 1000.66 1001.21 1001.90 1002.70 1003.56 1004.45 1005.34 1006.20 1007.01 1007.76 1008.46 1009.11 1009.72 1010.29 1010.82 1011.33 1011.79 1012.21 1012.58 1012.90 1013.15 1013.34
1005.35 1005.20 1005.03 1004.82 1004.58 1004.32 1004.03 1003.74 1003.45 1003.16 1002.87 1002.57 1002.27 1001.97 1001.66 1001.36 1001.09 1000.87 1000.72 1000.67 1000.74 1000.94 1001.27 1001.73 1002.31 1002.98 1003.71 1004.49 1005.28 1006.06 1006.82 1007.54 1008.23 1008.88 1009.50 1010.08 1010.62 1011.12 1011.58 1011.99 1012.35 1012.65 1012.89 1013.08
1004.10 1004.04 1003.99 1003.95 1003.90 1003.84 1003.75 1003.64 1003.50 1003.33 1003.14 1002.93 1002.70 1002.46 1002.23 1002.00 1001.79 1001.63 1001.53 1001.50 1001.56 1001.72 1001.99 1002.35 1002.81 1003.35 1003.96 1004.62 1005.30 1006.00 1006.71 1007.40 1008.07 1008.72 1009.35 1009.94 1010.49 1011.00 1011.47 1011.88 1012.23 1012.53 1012.78 1012.97
1003.00 1003.01 1003.08 1003.20 1003.33 1003.45 1003.55 1003.61 1003.62 1003.58 1003.50 1003.38 1003.23 1003.07 1002.90 1002.73 1002.59 1002.47 1002.40 1002.39 1002.44 1002.56 1002.76 1003.03 1003.38 1003.80 1004.29 1004.82 1005.40 1006.02 1006.66 1007.31 1007.97 1008.61 1009.25 1009.85 1010.43 1010.96 1011.44 1011.86 1012.24 1012.55 1012.81 1013.02
1002.14 1002.22 1002.41 1002.66 1002.94 1003.23 1003.48 1003.68 1003.82 1003.90 1003.91 1003.88 1003.80 1003.69 1003.58 1003.47 1003.37 1003.30 1003.26 1003.26 1003.30 1003.39 1003.53 1003.73 1003.98 1004.29 1004.65 1005.08 1005.56 1006.09 1006.66 1007.26 1007.88 1008.52 1009.16 1009.78 1010.38 1010.94 1011.45 1011.91 1012.31 1012.66 1012.95 1013.18
1001.55 1001.72 1002.01 1002.38 1002.78 1003.19 1003.56 1003.87 1004.11 1004.27 1004.35 1004.36 1004.33 1004.27 1004.20 1004.13 1004.08 1004.04 1004.03 1004.05 1004.09 1004.16 1004.26 1004.39 1004.56 1004.78 1005.04 1005.36 1005.74 1006.18 1006.68 1007.22 1007.81 1008.43 1009.06 1009.70 1010.32 1010.91 1011.47 1011.97 1012.43 1012.82 1013.15 1013.43
1001.20 1001.46 1001.85 1002.31 1002.82 1003.31 1003.77 1004.15 1004.44 1004.64 1004.76 1004.81 1004.80 1004.77 1004.73 1004.69 1004.67 1004.67 1004.69 1004.73 1004.78 1004.84 1004.92 1005.01 1005.12 1005.26 1005.44 1005.66 1005.95 1006.30 1006.72 1007.20 1007.75 1008.34 1008.96 1009.60 1010.25 1010.88 1011.48 1012.04 1012.55 1013.00 1013.39 1013.72
1000.99 1001.35 1001.83 1002.38 1002.96 1003.52 1004.03 1004.45 1004.78 1005.00 1005.13 1005.19 1005.20 1005.18 1005.16 1005.14 1005.15 1005.18 1005.23 1005.30 1005.37 1005.44 1005.50 1005.57 1005.64 1005.72 1005.83 1005.98 1006.18 1006.46 1006.80 1007.22 1007.72 1008.28 1008.89 1009.54 1010.20 1010.86 1011.51 1012.12 1012.68 1013.19 1013.63 1014.01
1000.82 1001.28 1001.85 1002.48 1003.12 1003.73 1004.27 1004.72 1005.07 1005.30 1005.44 1005.51 1005.52 1005.52 1005.51 1005.52 1005.55 1005.61 1005.69 1005.78 1005.87 1005.96 1006.03 1006.08 1006.12 1006.17 1006.22 1006.32 1006.46 1006.66 1006.95 1007.32 1007.77 1008.30 1008.89 1009.54 1010.22 1010.90 1011.58 1012.23 1012.83 1013.39 1013.87 1014.29
1000.62 1001.17 1001.82 1002.51 1003.21 1003.87 1004.45 1004.92 1005.29 1005.54 1005.69 1005.77 1005.80 1005.81 1005.82 1005.86 1005.91 1006.00 1006.11 1006.23 1006.34 1006.44 1006.51 1006.57 1006.60 1006.62 1006.64 1006.69 1006.79 1006.95 1007.20 1007.53 1007.95 1008.45 1009.03 1009.67 1010.35 1011.04 1011.73 1012.40 1013.03 1013.60 1014.11 1014.54
1000.38 1001.00 1001.71 1002.46 1003.20 1003.90 1004.52 1005.03 1005.42 1005.71 1005.89 1006.00 1006.06 1006.10 1006.15 1006.21 1006.29 1006.40 1006.53 1006.67 1006.80 1006.91 1006.99 1007.04 1007.07 1007.08 1007.09 1007.13 1007.20 1007.35 1007.57 1007.87 1008.28 1008.76 1009.33 1009.96 1010.63 1011.32 1012.00 1012.66 1013.28 1013.84 1014.34 1014.76
1000.14 1000.79 1001.54 1002.32 1003.11 1003.84 1004.49 1005.05 1005.49 1005.82 1006.05 1006.22 1006.33 1006.41 1006.50 1006.59 1006.71 1006.84 1006.99 1007.14 1007.28 1007.39 1007.48 1007.53 1007.56 1007.57 1007.58 1007.62 1007.69 1007.83 1008.05 1008.36 1008.75 1009.23 1009.79 1010.40 1011.05 1011.72 1012.37 1013.00 1013.59 1014.11 1014.57 1014.96
999.97 1000.63 1001.37 1002.17 1002.97 1003.72 1004.41 1005.01 1005.50 1005.89 1006.19 1006.42 1006.60 1006.74 1006.88 1007.02 1007.17 1007.32 1007.48 1007.64 1007.78 1007.89 1007.97 1008.03 1008.06 1008.08 1008.10 1008.15 1008.24 1008.40 1008.63 1008.94 1009.34 1009.82 1010.37 1010.97 1011.59 1012.22 1012.83 1013.41 1013.94 1014.41 1014.81 1015.14
999.93 1000.56 1001.27 1002.04 1002.83 1003.59 1004.30 1004.92 1005.47 1005.92 1006.29 1006.60 1006.85 1007.06 1007.26 1007.45 1007.63 1007.81 1007.99 1008.15 1008.28 1008.39 1008.48 1008.53 1008.57 1008.60 1008.64 1008.71 1008.82 1009.00 1009.26 1009.59 1010.00 1010.48 1011.02 1011.59 1012.18 1012.77 1013.33 1013.86 1014.32 1014.73 1015.07 1015.35
1000.06 1000.62 1001.27 1001.98 1002.73 1003.46 1004.16 1004.81 1005.38 1005.89 1006.33 1006.71 1007.04 1007.33 1007.59 1007.83 1008.06 1008.27 1008.46 1008.63 1008.77 1008.88 1008.96 1009.02 1009.07 1009.11 1009.17 1009.27 1009.41 1009.61 1009.89 1010.24 1010.66 1011.14 1011.66 1012.22 1012.78 1013.32 1013.84 1014.31 1014.72 1015.07 1015.37 1015.61
1000.33 1000.80 1001.36 1001.99 1002.66 1003.34 1004.01 1004.64 1005.24 1005.78 1006.27 1006.72 1007.12 1007.48 1007.82 1008.12 1008.40 1008.65 1008.87 1009.05 1009.21 1009.33 1009.42 1009.49 1009.55 1009.61 1009.69 1009.81 1009.98 1010.20 1010.50 1010.86 1011.28 1011.75 1012.27 1012.80 1013.33 1013.84 1014.32 1014.76 1015.13 1015.46 1015.73 1015.96
1000.69 1001.05 1001.51 1002.03 1002.61 1003.21 1003.82 1004.43 1005.01 1005.57 1006.10 1006.60 1007.07 1007.50 1007.90 1008.27 1008.61 1008.90 1009.16 1009.38 1009.56 1009.71 1009.82 1009.91 1009.99 1010.08 1010.19 1010.33 1010.52 1010.76 1011.06 1011.43 1011.85 1012.31 1012.81 1013.32 1013.83 1014.32 1014.78 1015.20 1015.58 1015.90 1016.18 1016.43
1001.08 1001.33 1001.68 1002.09 1002.55 1003.06 1003.60 1004.16 1004.72 1005.27 1005.83 1006.36 1006.88 1007.37 1007.84 1008.27 1008.67 1009.03 1009.34 1009.61 1009.83 1010.01 1010.16 1010.28 1010.40 1010.52 1010.66 1010.82 1011.03 1011.29 1011.60 1011.97 1012.38 1012.83 1013.31 1013.81 1014.31 1014.79 1015.25 1015.67 1016.06 1016.41 1016.73 1017.02
1001.45 1001.62 1001.85 1002.15 1002.51 1002.92 1003.38 1003.87 1004.39 1004.93 1005.48 1006.04 1006.59 1007.13 1007.65 1008.15 1008.60 1009.02 1009.39 1009.72 1009.99 1010.23 1010.43 1010.61 1010.77 1010.93 1011.11 1011.31 1011.54 1011.81 1012.13 1012.50 1012.90 1013.35 1013.81 1014.30 1014.79 1015.27 1015.74 1016.19 1016.61 1017.01 1017.37 1017.72
Thickness
5713 5721 5722 5719 5721 5723 5720 5719 5711 5711 5710 5710 5711 5711 5713 5713 5712 5709 5707 5706 5705 5702 5700 5700 5699 5698 5696 5696 5696 5696 5694 5692 5691 5692 5692 5691 5691 5692 5693 5694 5694 5693 5692 5692
5700 5712 5715 5711 5716 5716 5714 5715 5712 5707 5700 5710 5710 5708 5704 5703 5700 5696 5695 5695 5695 5693 5691 5690 5689 5688 5687 5687 5688 5687 5685 5684 5683 5683 5683 5683 5683 5684 5685 5686 5687 5686 5685 5685
5685 5701 5701 5691 5705 5707 5708 5709 5702 5691 5692 5699 5694 5691 5690 5691 5689 5686 5686 5685 5686 5684 5682 5681 5681 5680 5678 5679 5680 5678 5677 5676 5675 5675 5675 5675 5676 5677 5677 5678 5679 5678 5678 5679
5680 5682 5668 5688 5709 5706 5699 5696 5695 5689 5686 5684 5680 5682 5683 5683 5680 5678 5677 5677 5676 5675 5674 5673 5673 5673 5672 5671 5670 5670 5669 5667 5668 5668 5668 5668 5669 5669 5670 5671 5672 5672 5673 5673
5672 5667 5671 5685 5694 5692 5682 5677 5683 5678 5677 5677 5676 5673 5670 5672 5672 5669 5668 5666 5667 5668 5667 5667 5666 5665 5664 5662 5661 5660 5661 5660 5660 5660 5660 5661 5661 5662 5663 5663 5664 5666 5667 5667
5666 5656 5653 5666 5683 5690 5680 5661 5671 5671 5665 5664 5664 5654 5653 5661 5661 5659 5659 5658 5659 5659 5659 5658 5658 5657 5655 5653 5652 5651 5652 5652 5653 5653 5654 5654 5655 5656 5656 5657 5657 5659 5660 5662
5658 5653 5657 5666 5678 5679 5652 5645 5660 5661 5658 5656 5650 5648 5651 5655 5652 5651 5650 5650 5650 5650 5648 5649 5649 5648 5646 5645 5645 5645 5645 5645 5645 5645 5646 5648 5649 5650 5650 5652 5652 5653 5654 5656
5655 5645 5642 5661 5664 5652 5645 5653 5654 5654 5653 5649 5647 5648 5648 5647 5645 5644 5642 5641 5641 5639 5639 5640 5640 5638 5637 5637 5639 5639 5638 5637 5637 5639 5640 5642 5642 5643 5644 5646 5646 5647 5649 5650
5651 5645 5651 5656 5652 5652 5653 5648 5648 5647 5646 5645 5642 5640 5639 5638 5636 5636 5635 5634 5634 5632 5631 5631 5631 5630 5629 5630 5631 5631 5630 5629 5630 5631 5633 5634 5635 5636 5638 5639 5641 5643 5644 5644
5648 5647 5648 5650 5649 5649 5648 5644 5643 5642 5639 5638 5634 5633 5631 5630 5629 5628 5628 5627 5626 5625 5623 5623 5623 5623 5622 5623 5624 5623 5622 5622 5623 5624 5626 5627 5628 5630 5631 5632 5635 5637 5637 5638
5640 5641 5642 5642 5641 5641 5640 5639 5638 5635 5633 5630 5628 5625 5624 5622 5620 5620 5620 5619 5619 5617 5616 5615 5615 5616 5616 5616 5616 5615 5615 5615 5616 5618 5620 5620 5621 5622 5624 5625 5628 5630 5631 5632
5629 5633 5630 5630 5634 5635 5632 5630 5630 5628 5625 5624 5622 5619 5617 5615 5613 5612 5612 5612 5610 5610 5609 5609 5609 5608 5609 5609 5609 5608 5607 5607 5609 5611 5612 5613 5614 5614 5615 5617 5618 5620 5622 5622
5632 5632 5630 5629 5629 5629 5626 5625 5623 5621 5619 5617 5615 5612 5610 5608 5606 5605 5604 5604 5603 5603 5603 5602 5602 5602 5602 5602 5601 5600 5600 5600 5601 5604 5606 5607 5609 5609 5608 5608 5609 5611 5612 5612
5629 5626 5622 5622 5622 5623 5622 5621 5619 5616 5614 5612 5610 5607 5604 5602 5600 5599 5598 5598 5598 5598 5598 5597 5596 5595 5595 5595 5594 5593 5593 5594 5595 5597 5599 5601 5603 5604 5605 5605 5604 5605 5604 5603
5622 5621 5619 5620 5619 5617 5617 5615 5612 5609 5606 5606 5605 5601 5599 5596 5594 5594 5594 5594 5594 5593 5592 5591 5590 5590 5590 5589 5588 5587 5587 5588 5590 5591 5593 5594 5596 5598 5599 5599 5599 5599 5599 5597
5617 5617 5615 5614 5611 5611 5610 5608 5606 5603 5602 5599 5598 5596 5595 5593 5592 5591 5590 5589 5588 5587 5586 5585 5584 5584 5584 5583 5583 5582 5582 5582 5583 5584 5585 5586 5588 5589 5590 5591 5591 5592 5592 5591
5608 5606 5606 5605 5605 5604 5603 5602 5601 5600 5597 5595 5593 5593 5591 5589 5587 5586 5585 5585 5583 5582 5581 5579 5578 5578 5578 5578 5577 5577 5578 5578 5577 5577 5579 5580 5581 5583 5584 5585 5586 5586 5585 5585
5606 5604 5603 5602 5600 5599 5598 5597 5596 5595 5593 5592 5591 5588 5587 5584 5581 5580 5579 5579 5578 5576 5574 5574 5573 5573 5573 5573 5572 5573 5573 5573 5573 5573 5574 5576 5577 5578 5579 5580 5580 5580 5579 5579
5601 5600 5599 5598 5597 5596 5594 5593 5591 5590 5589 5588 5585 5583 5582 5580 5578 5577 5575 5573 5571 5568 5567 5568 5566 5567 5568 5568 5567 5568 5568 5568 5568 5569 5570 5571 5572 5573 5574 5574 5574 5574 5573 5572
5597 5596 5595 5594 5594 5592 5589 5588 5587 5585 5584 5583 5581 5579 5576 5575 5573 5572 5570 5567 5565 5564 5563 5562 5562 5563 5563 5563 5561 5564 5565 5566 5565 5565 5565 5566 5567 5567 5567 5567 5567 5567 5566 5566
5592 5591 5590 5589 5588 5587 5586 5584 5582 5581 5580 5579 5577 5574 5572 5571 5570 5568 5565 5563 5561 5560 5559 5557 5557 5557 5558 5557 5557 5560 5562 5562 5561 5561 5560 5560 5560 5560 5560 5559 5559 5559 5559 5558
5588 5586 5585 5584 5582 5581 5580 5579 5578 5577 5576 5574 5574 5572 5569 5567 5566 5564 5561 5558 5557 5554 5555 5554 5553 5551 5551 5552 5555 5557 5557 5556 5557 5557 5556 5555 5554 5552 5552 5551 5551 5551 5551 5551
5583 5581 5580 5579 5577 5575 5575 5574 5574 5573 5572 5571 5570 5568 5566 5564 5563 5560 5556 5555 5554 5550 5550 5550 5547 5546 5545 5549 5550 5551 5551 5551 5551 5551 5550 5549 5548 5546 5545 5545 5544 5544 5544 5544
5577 5576 5575 5574 5573 5571 5568 5569 5569 5569 5569 5568 5567 5565 5563 5561 5559 5557 5554 5550 5549 5547 5548 5544 5542 5542 5541 5544 5545 5546 5546 5545 5545 5545 5544 5543 5541 5540 5539 5539 5538 5539 5538 5539
5573 5572 5571 5569 5567 5566 5565 5564 5564 5564 5565 5564 5563 5562 5561 5558 5555 5553 5551 5548 5545 5544 5544 5541 5539 5538 5539 5541 5541 5541 5540 5539 5539 5538 5537 5537 5536 5535 5534 5533 5532 5532 5533 5533
5569 5568 5566 5564 5564 5562 5562 5562 5561 5561 5561 5559 5557 5556 5556 5554 5552 5550 5547 5546 5544 5541 5541 5540 5538 5536 5537 5537 5536 5535 5534 5533 5532 5532 5531 5531 5530 5529 5528 5527 5527 5527 5526 5526
5566 5564 5562 5561 5561 5561 5560 5560 5559 5558 5557 5556 5554 5552 5551 5550 5548 5546 5544 5542 5541 5539 5538 5537 5536 5536 5534 5533 5532 5531 5530 5529 5528 5527 5526 5525 5524 5522 5521 5520 5519 5519 5519 5519